Карточка аэропорта UATG

Внимание!
Информация на этой странице в стадии наполнения.
Если вы не увидели какой-то информации, или заметили неточность - пожалуйста сообщите нам!
Спасибо!
Команда RU-STAFF
Название аэропортаАтырау
Название аэропорта (англ.)Atyrau
Превышение-72 ft. (-21.9 m.)
Координаты47°7.332', 51°49.764'
Высота перехода10000ft
Эшелон переходаFL120, QNH<733:FL130
Коды ответчика3450-3457, 3560-3567
Зона ОрВДАктобе РПИ (UATT)
Данные METARUATG 250300Z 31009MPS 9999 SCT011 BKN033CB 19/17 Q0998 NOSIG RMK QFE750/1000
Проноз погоды (TAF)UATG 242300Z 2500/2524 29009G14MPS 9999 BKN033CB TX28/2510Z TN19/2502Z TEMPO 2500/2506 5000 -SHRA BR BKN020CB BECMG 2514/2515 30009MPS BECMG 2520/2522 28004MPS
NOTAMshow/hide NOTAM
AWOS   TABLE

Информация о ВПП

ВПП Длина ВПП (м.) Покрытие Курс ВПП Частота ILS
143000Асфальтобетон149109.9
323000Асфальтобетон329108.3

Диспетчерские позиции

Позывной Наименование органа УВД Частота
UATG_TWRАтырау Вышка118.1
UATG_APPАтырау Подход123.7



Спутниковое изображение